Satellite: NO-44
Catalog number: 26931
Epoch time:      11153.90971738
Element set:     766
Inclination:      067.0546 deg
RA of node:       020.3183 deg
Eccentricity:    0.0006791
Arg of perigee:   258.4617 deg
Mean anomaly:     101.5681 deg
Mean motion:   14.29662139 rev/day
Decay rate:       1.64e-06 rev/day^2
Epoch rev:           50488
Checksum:              315

Satellite: SO-50
Catalog number: 27607
Epoch time:      11152.77674333
Element set:    0480
Inclination:      064.5604 deg
RA of node:       014.5043 deg
Eccentricity:    0.0070861
Arg of perigee:   324.5819 deg
Mean anomaly:     035.0547 deg
Mean motion:   14.71748453 rev/day
Decay rate:       1.18e-06 rev/day^2
Epoch rev:           45382
Checksum:              295

Satellite: CO-55
Catalog number: 27844
Epoch time:      11152.61363286
Element set:     122
Inclination:      098.7053 deg
RA of node:       161.5408 deg
Eccentricity:    0.0008831
Arg of perigee:   243.5953 deg
Mean anomaly:     116.4323 deg
Mean motion:   14.20811813 rev/day
Decay rate:       1.34e-06 rev/day^2
Epoch rev:           41070
Checksum:              272

Satellite: CO-57
Catalog number: 27848
Epoch time:      11152.55462028
Element set:    0072
Inclination:      098.7113 deg
RA of node:       160.6663 deg
Eccentricity:    0.0008687
Arg of perigee:   248.5539 deg
Mean anomaly:     111.4727 deg
Mean motion:   14.20591039 rev/day
Decay rate:        9.1e-07 rev/day^2
Epoch rev:           41064
Checksum:              307

Satellite: AO-51
Catalog number: 28375
Epoch time:      11152.90183394
Element set:    0986
Inclination:      098.0970 deg
RA of node:       132.1528 deg
Eccentricity:    0.0084420
Arg of perigee:   115.8177 deg
Mean anomaly:     245.1750 deg
Mean motion:   14.40757991 rev/day
Decay rate:        6.5e-07 rev/day^2
Epoch rev:           36386
Checksum:              323

Satellite: CP3
Catalog number: 31129
Epoch time:      11152.64932503
Element set:    0885
Inclination:      097.8992 deg
RA of node:       177.7601 deg
Eccentricity:    0.0101010
Arg of perigee:   228.7474 deg
Mean anomaly:     130.4985 deg
Mean motion:   14.52483984 rev/day
Decay rate:       2.18e-06 rev/day^2
Epoch rev:           21858
Checksum:              314

Satellite: CO-65
Catalog number: 32785
Epoch time:      11152.61678803
Element set:    0006
Inclination:      097.8502 deg
RA of node:       216.8068 deg
Eccentricity:    0.0013852
Arg of perigee:   224.0333 deg
Mean anomaly:     135.9787 deg
Mean motion:   14.82001307 rev/day
Decay rate:      1.023e-05 rev/day^2
Epoch rev:           16723
Checksum:              289

Satellite: KKS-1
Catalog number: 33493
Epoch time:      11153.91132011
Element set:     638
Inclination:      098.1226 deg
RA of node:       282.3161 deg
Eccentricity:    0.0021178
Arg of perigee:   087.8825 deg
Mean anomaly:     272.4805 deg
Mean motion:   14.81698438 rev/day
Decay rate:      1.400e-05 rev/day^2
Epoch rev:           12740
Checksum:              285

Satellite: SOHLA-1
Catalog number: 33496
Epoch time:      11152.93518356
Element set:    0440
Inclination:      098.0778 deg
RA of node:       262.9210 deg
Eccentricity:    0.0006828
Arg of perigee:   163.3553 deg
Mean anomaly:     196.7876 deg
Mean motion:   14.69617791 rev/day
Decay rate:       1.70e-06 rev/day^2
Epoch rev:           12624
Checksum:              323

Satellite: TISAT-1
Catalog number: 36799
Epoch time:      11153.87686584
Element set:     913
Inclination:      098.1029 deg
RA of node:       221.9846 deg
Eccentricity:    0.0014511
Arg of perigee:   328.1627 deg
Mean anomaly:     031.8706 deg
Mean motion:   14.80556021 rev/day
Decay rate:       8.83e-06 rev/day^2
Epoch rev:            4819
Checksum:              321

Satellite: STUDSAT
Catalog number: 36801
Epoch time:      11153.75063456
Element set:     192
Inclination:      098.1057 deg
RA of node:       221.7181 deg
Eccentricity:    0.0012633
Arg of perigee:   316.3822 deg
Mean anomaly:     043.6389 deg
Mean motion:   14.80613378 rev/day
Decay rate:      2.545e-05 rev/day^2
Epoch rev:            4816
Checksum:              286

Satellite: RAX
Catalog number: 37223
Epoch time:      11152.36844328
Element set:    0173
Inclination:      071.9713 deg
RA of node:       073.6151 deg
Eccentricity:    0.0021634
Arg of perigee:   311.5989 deg
Mean anomaly:     048.3343 deg
Mean motion:   14.77415682 rev/day
Decay rate:       6.35e-06 rev/day^2
Epoch rev:           02854
Checksum:              291

Satellite: OOREOS
Catalog number: 37224
Epoch time:      11076.42207246
Element set:    0109
Inclination:      071.9712 deg
RA of node:       241.3960 deg
Eccentricity:    0.0017800
Arg of perigee:   096.5373 deg
Mean anomaly:     263.7815 deg
Mean motion:   14.76929834 rev/day
Decay rate:       8.68e-06 rev/day^2
Epoch rev:           01732
Checksum:              300

Satellite: FO-69
Catalog number: 37227
Epoch time:      11153.35663741
Element set:    0042
Inclination:      071.9700 deg
RA of node:       071.9679 deg
Eccentricity:    0.0018069
Arg of perigee:   305.1996 deg
Mean anomaly:     054.7473 deg
Mean motion:   14.76589887 rev/day
Decay rate:       3.27e-06 rev/day^2
Epoch rev:           00713
Checksum:              334

